Flag for Israel Weather past 2 weeks in Eilat, Israel

Now
84 °F

Sunny.


Feels Like: 83 °F
Forecast: 65 / 88 °F
Wind: 22 mph from Northeast

Location: Eilat

Current Time: May 3, 2015 at 12:56:02 PM

Latest Report: May 3, 2015 at 11:50 AM


Visibility: 10 mi

Pressure: 29.89 "Hg

Humidity: 35%

Dew point: 54 °F

Location of EilatLocation

Historic Weather in Eilat — Graph

°F

Eilat temperature yesterday

Maximum temperature yesterday: 93 °F (at 1:50 PM)
Minimum temperature yesterday: 70 °F (at 6:50 AM)
Average temperature yesterday: 86 °F

Past Weeks' High & Low Weather Summary

 TemperatureHumidityPressure
High111 °F (Apr 29, 3:50 PM)60% (Apr 19, 6:50 AM)30.24 "Hg (Apr 19, 6:50 AM)
Low59 °F (Apr 24, 5:50 AM)6% (Apr 21, 5:50 PM)29.77 "Hg (Apr 22, 4:50 PM)
Average85 °F22%29.95 "Hg
* Reported Apr 18 10:50 AM — May 3 10:50 AM, Eilat, Weather by CustomWeather, © 2015

Note: Actual official high and low records may vary slightly from our data, if they occured in-between our weather recording intervals... More about our weather records

Advertising

Eilat weather history for previous 24 hours

 ConditionsComfort  
Time TempWeatherWind HumidityBarometerVisibility
10:50 AM
Sun, May 3
81 °FSunny.23 mph39%29.89 "Hg10 mi
9:50 AM79 °FSunny.23 mph42%29.89 "Hg10 mi
8:50 AM75 °FSunny.24 mph47%29.92 "Hg10 mi
7:50 AM72 °FSunny.22 mph53%29.92 "Hg10 mi
6:50 AM70 °FClear.18 mph57%29.92 "Hg10 mi
5:50 AM70 °FClear.18 mph57%29.89 "Hg10 mi
10:50 PM
Sat, May 2
81 °FClear.21 mph26%29.92 "Hg10 mi
9:50 PM86 °FClear.17 mph20%29.89 "Hg10 mi
8:50 PM88 °FClear.18 mph18%29.89 "Hg10 mi
7:50 PM90 °FSunny.22 mph13%29.86 "Hg10 mi
6:50 PM90 °FSunny.22 mph13%29.86 "Hg10 mi
5:50 PM93 °FSunny.23 mph14%29.83 "Hg10 mi
4:50 PM93 °FSunny.23 mph14%29.86 "Hg10 mi
3:50 PM93 °FSunny.23 mph15%29.86 "Hg10 mi
2:50 PM93 °FSunny.24 mph16%29.89 "Hg10 mi
1:50 PM93 °FSunny.23 mph16%29.92 "Hg10 mi
12:50 PM90 °FSunny.22 mph21%29.95 "Hg10 mi
Weather by CustomWeather, © 2015

See weather overviewHow to use our weather pages